| time (UTC) | temp F | wind direction | speed MPH | gust MPH | rain 1hr in | rain 24hr in | rain mn in | humidity % | barometer mb |
| 20260508024531 | 45 | 0 | 0.0 | 6.0 | 0.00 | 0.28 | 0.01 | 67 | 1017.5 |
| 20260508023034 | 44 | 0 | 0.0 | 0.0 | 0.00 | 0.28 | 0.01 | 71 | 1017.8 |
| 20260508021533 | 44 | 0 | 0.0 | 0.0 | 0.00 | 0.28 | 0.01 | 71 | 1017.9 |
| 20260508020030 | 44 | 0 | 0.0 | 0.0 | 0.00 | 0.28 | 0.01 | 70 | 1018.0 |
| 20260508014531 | 44 | 0 | 0.0 | 5.0 | 0.00 | 0.28 | 0.01 | 70 | 1018.1 |
| 20260508013030 | 44 | 0 | 0.0 | 0.0 | 0.00 | 0.28 | 0.01 | 69 | 1018.2 |
| 20260508011532 | 44 | 0 | 0.0 | 0.0 | 0.00 | 0.28 | 0.01 | 68 | 1018.2 |
| 20260508010038 | 44 | 340 | 0.0 | 7.0 | 0.00 | 0.28 | 0.01 | 69 | 1018.2 |
| 20260508004531 | 45 | 0 | 0.0 | 1.0 | 0.00 | 0.28 | 0.01 | 66 | 1018.3 |
| 20260508003029 | 47 | 0 | 0.0 | 3.0 | 0.00 | 0.28 | 0.01 | 57 | 1018.3 |
| 20260508001530 | 47 | 0 | 0.0 | 7.0 | 0.00 | 0.28 | 0.01 | 57 | 1018.4 |
| 20260508000029 | 47 | 0 | 0.0 | 11.0 | 0.00 | 0.28 | 0.01 | 57 | 1018.6 |
| 20260507234530 | 47 | 144 | 1.0 | 17.0 | 0.00 | 0.28 | 0.01 | 57 | 1018.7 |
| 20260507233038 | 47 | 0 | 0.0 | 10.0 | 0.00 | 0.28 | 0.01 | 57 | 1018.7 |
| 20260507231531 | 48 | 0 | 0.0 | 9.0 | 0.00 | 0.28 | 0.01 | 54 | 1018.8 |
| 20260507230045 | 47 | 0 | 0.0 | 10.0 | 0.00 | 0.28 | 0.01 | 56 | 1019.0 |
| 20260507224535 | 46 | 144 | 1.0 | 19.0 | 0.00 | 0.28 | 0.01 | 59 | 1019.2 |
| 20260507223104 | 47 | 127 | 3.0 | 17.0 | 0.00 | 0.28 | 0.01 | 58 | 1019.1 |
| 20260507221531 | 47 | 132 | 2.0 | 13.0 | 0.00 | 0.28 | 0.01 | 58 | 1019.2 |
| 20260507220028 | 47 | 0 | 2.0 | 16.0 | 0.00 | 0.28 | 0.01 | 60 | 1019.2 |
| 20260507214530 | 46 | 148 | 3.0 | 16.0 | 0.00 | 0.28 | 0.01 | 61 | 1019.3 |
| 20260507213030 | 45 | 106 | 3.0 | 15.0 | 0.00 | 0.28 | 0.01 | 62 | 1019.5 |
| 20260507211528 | 46 | 130 | 1.0 | 15.0 | 0.00 | 0.28 | 0.01 | 60 | 1019.5 |
| 20260507210037 | 46 | 209 | 1.0 | 10.0 | 0.00 | 0.28 | 0.01 | 59 | 1019.7 |
| 20260507204533 | 46 | 0 | 0.0 | 10.0 | 0.00 | 0.28 | 0.01 | 61 | 1019.6 |
| 20260507203036 | 46 | 113 | 1.0 | 10.0 | 0.00 | 0.28 | 0.01 | 62 | 1019.8 |
| 20260507201534 | 46 | 149 | 0.0 | 10.0 | 0.00 | 0.28 | 0.01 | 56 | 1019.9 |
| 20260507200049 | 46 | 0 | 0.0 | 6.0 | 0.00 | 0.28 | 0.01 | 57 | 1019.8 |
| 20260507194531 | 46 | 0 | 0.0 | 9.0 | 0.00 | 0.28 | 0.01 | 57 | 1019.9 |
| 20260507193040 | 45 | 175 | 2.0 | 10.0 | 0.00 | 0.28 | 0.01 | 58 | 1019.9 |
| 20260507191529 | 45 | 182 | 3.0 | 9.0 | 0.00 | 0.28 | 0.01 | 59 | 1020.0 |
| 20260507190036 | 44 | 189 | 0.0 | 5.0 | 0.00 | 0.28 | 0.01 | 62 | 1020.1 |
| 20260507184528 | 44 | 155 | 0.0 | 6.0 | 0.00 | 0.28 | 0.01 | 61 | 1020.1 |
| 20260507183037 | 44 | 0 | 1.0 | 6.0 | 0.00 | 0.28 | 0.01 | 60 | 1020.2 |
| 20260507181533 | 45 | 0 | 0.0 | 11.0 | 0.00 | 0.28 | 0.01 | 61 | 1020.1 |
| 20260507180030 | 46 | 194 | 1.0 | 8.0 | 0.00 | 0.28 | 0.01 | 57 | 1020.0 |
| 20260507174537 | 44 | 0 | 0.0 | 12.0 | 0.00 | 0.28 | 0.01 | 67 | 1020.0 |
| 20260507173028 | 43 | 257 | 2.0 | 7.0 | 0.00 | 0.28 | 0.01 | 74 | 1020.1 |
| 20260507171531 | 42 | 234 | 4.0 | 9.0 | 0.00 | 0.28 | 0.01 | 75 | 1020.1 |
| 20260507170030 | 41 | 0 | 1.0 | 7.0 | 0.00 | 0.28 | 0.01 | 79 | 1020.1 |
| 20260507164529 | 40 | 219 | 1.0 | 5.0 | 0.00 | 0.28 | 0.01 | 84 | 1020.2 |
| 20260507163031 | 40 | 209 | 0.0 | 6.0 | 0.00 | 0.28 | 0.01 | 83 | 1020.4 |
| 20260507161531 | 39 | 0 | 1.0 | 9.0 | 0.00 | 0.28 | 0.01 | 84 | 1020.4 |
| 20260507160030 | 39 | 217 | 2.0 | 8.0 | 0.00 | 0.28 | 0.01 | 83 | 1020.1 |
| 20260507154530 | 39 | 223 | 0.0 | 8.0 | 0.00 | 0.28 | 0.01 | 84 | 1020.4 |
| 20260507153035 | 39 | 218 | 1.0 | 7.0 | 0.00 | 0.28 | 0.01 | 87 | 1020.3 |
| 20260507151529 | 38 | 216 | 1.0 | 8.0 | 0.00 | 0.28 | 0.01 | 88 | 1020.3 |
| 20260507150032 | 37 | 180 | 1.0 | 5.0 | 0.00 | 0.28 | 0.01 | 90 | 1020.2 |
| 20260507144531 | 37 | 0 | 0.0 | 0.0 | 0.00 | 0.28 | 0.01 | 90 | 1020.2 |
| 20260507143027 | 37 | 0 | 0.0 | 3.0 | 0.00 | 0.28 | 0.01 | 89 | 1020.2 |
| 20260507141527 | 37 | 121 | 0.0 | 4.0 | 0.00 | 0.28 | 0.01 | 88 | 1020.2 |
| 20260507140033 | 37 | 197 | 1.0 | 2.0 | 0.00 | 0.28 | 0.01 | 86 | 1020.3 |
| 20260507134529 | 38 | 0 | 0.0 | 9.0 | 0.00 | 0.28 | 0.01 | 85 | 1020.3 |
| 20260507133028 | 38 | 267 | 4.0 | 13.0 | 0.00 | 0.28 | 0.01 | 84 | 1020.4 |
| 20260507131529 | 38 | 270 | 1.0 | 4.0 | 0.00 | 0.28 | 0.01 | 84 | 1020.2 |
| 20260507130052 | 38 | 251 | 2.0 | 9.0 | 0.00 | 0.28 | 0.01 | 82 | 1020.1 |
| 20260507124529 | 38 | 246 | 3.0 | 9.0 | 0.00 | 0.28 | 0.01 | 81 | 1020.1 |
| 20260507123030 | 38 | 0 | 0.0 | 9.0 | 0.00 | 0.28 | 0.01 | 82 | 1020.1 |
| 20260507121528 | 38 | 195 | 3.0 | 9.0 | 0.00 | 0.28 | 0.01 | 82 | 1020.3 |
| 20260507120036 | 38 | 203 | 3.0 | 7.0 | 0.00 | 0.28 | 0.01 | 83 | 1020.3 |
| 20260507114527 | 39 | 228 | 1.0 | 11.0 | 0.00 | 0.28 | 0.01 | 83 | 1020.3 |
| 20260507113029 | 39 | 178 | 4.0 | 13.0 | 0.00 | 0.28 | 0.01 | 83 | 1020.2 |
| 20260507111528 | 39 | 0 | 2.0 | 15.0 | 0.00 | 0.28 | 0.01 | 85 | 1020.3 |
| 20260507110030 | 39 | 240 | 1.0 | 8.0 | 0.00 | 0.28 | 0.01 | 86 | 1020.2 |
| 20260507104530 | 38 | 226 | 1.0 | 12.0 | 0.00 | 0.28 | 0.01 | 87 | 1020.2 |
| 20260507103030 | 38 | 195 | 0.0 | 5.0 | 0.00 | 0.28 | 0.01 | 88 | 1020.2 |
| 20260507101537 | 37 | 192 | 0.0 | 7.0 | 0.00 | 0.28 | 0.01 | 88 | 1020.1 |
| 20260507100044 | 37 | 0 | 0.0 | 9.0 | 0.00 | 0.28 | 0.01 | 88 | 1020.0 |
| 20260507094528 | 37 | 229 | 3.0 | 12.0 | 0.00 | 0.28 | 0.01 | 89 | 1020.0 |
| 20260507093028 | 38 | 241 | 1.0 | 7.0 | 0.00 | 0.28 | 0.01 | 89 | 1019.9 |
| 20260507091529 | 38 | 206 | 1.0 | 10.0 | 0.00 | 0.28 | 0.01 | 89 | 1020.0 |
| 20260507090031 | 38 | 237 | 5.0 | 15.0 | 0.01 | 0.28 | 0.01 | 90 | 1019.7 |
| 20260507084530 | 38 | 210 | 4.0 | 16.0 | 0.02 | 0.28 | 0.01 | 91 | 1019.5 |
| 20260507083035 | 38 | 209 | 3.0 | 12.0 | 0.04 | 0.28 | 0.01 | 92 | 1019.3 |
| 20260507081530 | 38 | 234 | 4.0 | 14.0 | 0.05 | 0.28 | 0.01 | 93 | 1019.2 |
| 20260507080028 | 38 | 259 | 3.0 | 14.0 | 0.05 | 0.27 | 0.00 | 93 | 1019.3 |
| 20260507074530 | 38 | 213 | 4.0 | 15.0 | 0.05 | 0.26 | 0.26 | 92 | 1019.2 |
| 20260507073032 | 38 | 248 | 1.0 | 8.0 | 0.05 | 0.24 | 0.24 | 92 | 1019.2 |
| 20260507071532 | 39 | 232 | 2.0 | 8.0 | 0.05 | 0.23 | 0.23 | 92 | 1019.0 |
| 20260507070037 | 39 | 204 | 1.0 | 9.0 | 0.04 | 0.22 | 0.22 | 91 | 1019.0 |
| 20260507064535 | 39 | 212 | 1.0 | 8.0 | 0.04 | 0.21 | 0.21 | 92 | 1018.8 |
| 20260507063032 | 39 | 224 | 1.0 | 8.0 | 0.03 | 0.19 | 0.19 | 93 | 1018.7 |
| 20260507061530 | 39 | 244 | 0.0 | 3.0 | 0.03 | 0.18 | 0.18 | 93 | 1018.5 |
| 20260507060030 | 39 | 0 | 0.0 | 4.0 | 0.03 | 0.17 | 0.17 | 93 | 1018.5 |
| 20260507054536 | 39 | 215 | 1.0 | 6.0 | 0.03 | 0.17 | 0.17 | 92 | 1018.3 |
| 20260507053030 | 40 | 0 | 0.0 | 0.0 | 0.03 | 0.16 | 0.16 | 92 | 1018.1 |
| 20260507051528 | 40 | 0 | 0.0 | 4.0 | 0.05 | 0.15 | 0.15 | 91 | 1018.1 |
| 20260507050035 | 39 | 209 | 1.0 | 4.0 | 0.08 | 0.14 | 0.14 | 92 | 1018.2 |
| 20260507044536 | 39 | 142 | 1.0 | 9.0 | 0.09 | 0.14 | 0.14 | 91 | 1018.0 |
| 20260507043030 | 39 | 167 | 2.0 | 10.0 | 0.10 | 0.13 | 0.13 | 91 | 1018.1 |
| 20260507041536 | 40 | 183 | 2.0 | 16.0 | 0.07 | 0.10 | 0.10 | 90 | 1018.2 |
| 20260507040029 | 41 | 216 | 3.0 | 16.0 | 0.03 | 0.06 | 0.06 | 88 | 1018.0 |
| 20260507034528 | 41 | 232 | 3.0 | 14.0 | 0.03 | 0.05 | 0.05 | 86 | 1017.8 |
| 20260507033034 | 43 | 0 | 0.0 | 6.0 | 0.02 | 0.03 | 0.03 | 85 | 1017.3 |
| 20260507031530 | 44 | 0 | 0.0 | 0.0 | 0.02 | 0.03 | 0.03 | 84 | 1016.8 |
| 20260507030029 | 44 | 0 | 0.0 | 4.0 | 0.03 | 0.03 | 0.03 | 83 | 1016.8 |